Aeroporto :
LOGIN :

Iscrizione | Disclaimer

   EN    FR    IT 

 










Sommario :    VFR   VFR Marginale   IFR   IFR Intensivo   IFR Molto Intensivo
Visibilità : 
Base nubi : 
>= 8 km
>= 3000ft
5 / 8 km
1000 / 3000 ft
1500m / 5 km
500 / 1000 ft
800 / 1500m
200 / 500 ft
< 800m
< 200 ft
Simboli :   Temporali  Nebbia  Neve Forte  Precipitazioni Forti  Vento > 20 kt
SIGMETs :   Varie  Temporali  Ghiacco  Turbolenza  Onda orograficha  Ceneri Vulcaniche







- Altitudine del aeroporto : 1058 ft
- Codice IATA : SCN


EDDR - Saarbrücken

ULTIMO METAR :
  • 241650Z 31005KT CAVOK 11/05 Q1034 NOSIG

METARs OBSOLETI :
  • 241620Z 31007KT CAVOK 12/04 Q1033 NOSIG
  • 241550Z 31009KT 9999 FEW048 13/04 Q1033 NOSIG
  • 241520Z 30010KT 9999 FEW048 14/03 Q1033 NOSIG
  • 241450Z 35006KT 320V030 9999 FEW048 SCT070 15/03 Q1033 NOSIG
  • 241420Z 31008KT 270V360 9999 FEW048 SCT067 14/04 Q1033 NOSIG

TAF TAF EDDR
Valido dal 24 a 12 ore il 25 a 12 ore UTC


241100Z 2412/2512 33008KT 9999 SCT040
BECMG 2417/2419 34003KT
BECMG 2501/2503 04005KT
BECMG 2509/2511 06010KT
Nessun NOTAM noto per questo aeroporto.



MetMap, La meteo Aeronautica in un colpo d'occhio ! - Copyright ORBIFLY Dicembre 2007 - Disclaimer

ORBIFLY MET'MAP TEAM :

Programmazione e sviluppo : Alexandra Zaïnal
Concezione e sviluppo : Baudouin d'Aumeries
Co-Programmazione e sviluppo : Marc-Olivier Méhu
Supporto tecnico e logistico : Manuel Goepfert
Aiuto per la traduzione : Arnaldo La Scala

Contatto : metmap@orbifly.com




FONTI E CREDITI :

   NOAA